Snowfall_Accumulation
0.0 0.0 0.0 0.0 0.0 0.0 0.0 0.0 0.0 0.0 0.0 0.0 0.0 0.0 0.0 0.0 0.0 0.0 0.0 0.0 0.0 0.0 0.0 0.0 0.0 0.0 0.0 0.0 0.0 0.0 0.0 0.0 0.0 0.0 0.0 0.0 0.0 0.0 0.0 0.0 0.0 0.0 0.0 0.0
0.0 0.0 0.0 0.0 0.0 0.0 0.0 0.0 0.0 0.0 0.0 0.0 0.0 0.0 0.0 0.0 0.0 0.0 0.0 0.0 0.0 0.0 0.0 0.0 0.0 0.0 0.0 0.0 0.0 0.0 0.0 0.0 0.0 0.0 0.0 0.0 0.0 0.0 0.0 0.0 0.0 0.0 0.0 0.0
0.0 0.0 0.0 0.0 0.0 0.0 0.0 0.0 0.0 0.0 0.0 0.0 0.0 0.0 0.0 0.0 0.0 0.0 0.0 0.0 0.0 0.0 0.0 0.0 0.0 0.0 0.0 0.0 0.0 0.0 0.0 0.0 0.0 0.0 0.0 0.0 0.0 0.0 0.0 0.0 0.0 0.0 0.0 0.0
0.0 0.0 0.0 0.0 0.0 0.0 0.0 0.0 0.0 0.0 0.0 0.3 0.0 1.0 0.0 0.0 0.0 0.0 0.0 0.0 0.0 0.0 0.0 0.0 0.0 0.0 0.0 0.0 0.0 0.0 0.0 0.0 0.0 0.0 0.0 0.0 0.0 0.0 0.0 0.0 0.0 0.0 0.0 0.0
0.0 0.0 0.0 0.0 0.0 0.0 0.0 0.0 0.0 0.0 0.1 0.0 0.0 0.1 0.0 0.0 0.0 0.0 0.0 0.0 0.0 0.0 0.0 0.0 0.0 0.0 0.0 0.0 0.0 0.0 0.0 0.0 0.0 0.0 0.0 0.0 0.0 0.0 0.0 0.0 0.0 0.0 0.0 0.0
0.0 0.0 0.0 0.0 0.0 0.0 0.0 0.0 0.0 0.0 0.0 4.3 0.0 0.0 0.0 0.0 0.0 0.0 0.0 0.0 0.0 0.0 0.0 0.0 0.0 0.0 0.0 0.0 0.0 0.0 0.0 0.0 0.0 0.0 0.0 0.0 0.0 0.0 0.0 0.0 0.0 0.0 0.0 0.0
0.0 0.0 0.0 0.0 0.0 0.0 0.0 0.0 8.1 11.6 19.7 6.5 0.0 0.0 0.0 0.0 0.0 0.0 0.0 0.0 0.0 0.0 0.0 0.0 0.0 0.0 0.0 0.0 0.0 0.0 0.0 0.0 0.0 0.0 0.0 0.0 0.0 0.0 0.0 0.0 0.0 0.0 0.0 0.0
0.2 0.8 0.0 0.0 0.0 0.0 0.0 0.2 3.2 6.0 5.2 0.7 0.0 1.5 0.0 0.0 0.0 0.0 0.0 0.0 0.0 0.0 0.0 0.0 0.0 0.0 0.0 0.0 0.0 0.0 0.0 0.0 0.0 0.0 0.0 0.0 0.0 0.0 0.0 0.0 0.0 0.0 0.0 0.0
0.2 0.1 0.0 0.0 0.0 0.0 0.0 1.2 0.0 4.9 3.6 2.9 0.1 0.0 0.0 0.0 0.0 0.0 0.0 0.0 0.0 0.0 0.0 0.0 0.0 0.0 0.0 0.0 0.0 0.0 0.0 0.0 0.0 0.0 0.0 0.0 0.0 0.0 0.0 0.0 0.0 0.0 0.0 0.0
0.0 0.6 0.0 0.0 0.0 0.0 0.0 0.0 3.6 3.3 11.0 4.5 0.7 0.0 0.0 0.0 0.0 0.0 0.0 0.0 0.0 0.0 0.0 0.0 0.0 0.0 0.0 0.0 0.0 0.0 0.0 0.0 0.0 0.0 0.0 0.0 0.0 0.0 0.0 0.0 0.0 0.0 0.0 0.0
0.0 0.2 0.0 0.0 0.0 0.0 0.4 1.3 0.7 0.4 1.2 4.2 3.2 0.4 0.0 0.0 0.0 0.0 0.0 0.0 0.0 0.0 0.0 0.0 0.0 0.0 0.0 0.0 0.0 0.0 0.0 0.0 0.0 0.0 0.0 0.0 0.0 0.0 0.0 0.0 0.0 0.0 0.0 0.0
0.0 0.1 1.5 0.0 0.0 0.0 0.0 0.0 0.0 4.8 1.6 0.5 2.2 1.8 0.0 0.0 0.0 0.0 0.0 0.0 0.0 0.0 0.0 0.0 0.0 0.0 0.0 0.0 0.0 0.0 0.0 0.0 0.0 0.0 0.0 0.0 0.0 0.0 0.0 0.0 0.0 0.0 0.0 0.0
0.2 3.0 6.6 2.4 1.5 0.0 0.0 0.0 0.0 1.1 1.5 2.2 11.5 1.3 0.0 0.0 0.0 0.0 0.0 0.0 0.0 0.0 0.0 0.0 0.0 0.0 0.0 0.0 0.0 0.0 0.0 0.0 0.0 0.0 0.0 0.0 0.0 0.0 0.3 1.1 0.3 0.1 0.4 0.4
nan 1.5 3.0 1.1 0.1 0.1 0.1 0.0 0.0 4.6 10.1 3.6 1.6 2.0 0.0 0.0 0.2 0.0 0.0 0.0 0.0 0.0 0.0 0.0 0.0 0.0 0.0 0.0 0.0 0.0 0.0 0.0 0.0 0.0 0.0 0.0 0.1 0.1 0.4 1.5 3.1 2.9 1.3 0.9
0.3 5.7 1.0 0.7 0.1 0.1 0.1 0.1 0.1 1.6 2.0 7.2 0.7 4.0 2.4 1.4 4.3 1.4 0.2 0.0 0.0 0.0 0.0 0.0 0.0 0.0 0.0 0.1 0.1 0.8 0.3 0.0 0.0 0.1 1.2 2.9 1.3 1.2 2.7 4.8 5.0 4.3 2.8 2.0
0.4 5.4 0.9 3.6 0.2 0.2 0.6 0.0 0.0 0.0 0.9 0.2 0.0 0.1 0.0 0.0 0.0 0.6 0.3 0.5 0.1 0.5 0.5 0.4 0.3 0.3 0.2 0.9 1.3 2.5 3.1 1.8 0.3 1.7 5.7 4.7 5.0 4.5 4.9 7.6 6.8 5.9 4.9 4.7
2.4 4.7 8.3 13.0 0.2 0.6 13.0 0.0 0.0 0.6 0.2 2.1 3.1 0.8 0.0 0.7 0.5 1.7 0.7 1.4 1.7 1.7 1.6 0.9 1.5 2.3 0.6 2.5 1.2 5.4 4.9 2.0 4.4 5.1 7.1 8.0 8.7 7.0 7.6 7.0 6.9 6.2 5.1 3.7
5.5 4.5 4.4 17.5 6.2 41.3 1.0 0.0 0.0 0.0 0.0 0.1 0.2 0.2 0.0 3.8 0.3 0.6 0.8 1.2 1.5 2.4 2.7 2.4 1.5 2.5 2.1 1.8 2.9 3.9 4.1 5.1 7.0 6.8 7.7 7.4 8.1 7.2 6.4 6.7 6.4 6.3 3.9 4.5
0.8 1.9 26.6 40.5 18.5 0.2 0.0 0.0 0.0 0.1 0.1 0.0 0.0 0.0 0.0 0.0 0.0 0.0 0.3 1.7 2.4 3.4 3.7 3.3 3.2 4.3 4.4 5.8 5.3 5.9 7.4 9.0 7.3 8.2 7.7 7.6 6.4 8.2 7.5 7.5 7.4 4.6 2.6 1.6
2.0 1.3 7.1 36.0 28.0 23.3 0.0 0.0 0.0 0.0 0.5 0.0 0.0 0.0 0.0 0.0 0.2 0.2 2.7 2.1 3.6 4.9 6.1 7.8 6.9 7.8 6.1 6.5 4.6 3.9 6.0 5.9 7.1 6.3 6.6 6.3 6.0 5.6 7.0 4.6 5.7 5.3 2.4 2.7
18.4 27.0 41.1 25.9 29.0 9.5 0.0 0.0 0.0 3.5 0.3 0.0 0.0 0.0 0.0 0.2 0.5 1.0 2.4 1.8 2.7 4.5 6.1 5.7 5.6 5.8 6.7 7.9 3.5 4.1 3.9 4.1 3.5 3.0 3.7 4.4 3.7 3.7 2.9 2.1 1.5 1.9 2.3 2.3
6.2 16.4 30.7 23.2 33.7 33.9 0.0 0.1 0.6 0.3 0.1 0.1 0.0 0.0 0.0 0.0 0.0 0.6 0.6 1.6 1.9 3.0 4.4 4.7 2.6 4.1 7.6 6.6 1.1 2.4 1.2 3.2 2.5 1.3 1.6 2.2 2.3 1.4 1.2 1.1 0.6 1.5 0.8 0.8
7.2 3.2 4.7 3.4 3.8 0.3 0.1 0.8 0.6 1.5 0.4 0.2 0.1 0.0 0.0 0.0 0.0 0.0 0.1 0.1 0.1 0.2 0.3 1.4 0.4 0.3 1.1 1.7 0.1 0.0 1.9 1.5 1.7 1.6 3.0 2.8 2.2 1.4 1.1 0.9 0.4 1.4 0.2 1.2
1.0 1.1 1.7 1.9 0.1 0.1 0.5 0.8 0.7 0.5 0.5 0.3 0.2 0.2 0.1 0.1 0.0 0.0 0.0 0.0 0.0 0.1 0.4 0.9 0.9 0.6 0.4 0.3 0.4 0.4 0.7 0.7 3.4 3.4 2.1 1.3 1.3 0.7 0.7 1.2 1.2 1.9 2.0 2.0
0.4 0.4 1.4 1.0 0.0 0.2 0.3 0.1 0.2 0.1 0.2 0.3 0.4 0.6 0.2 0.1 0.0 0.0 0.1 0.1 0.1 0.3 0.6 1.1 1.2 0.8 0.6 0.5 0.6 1.4 1.2 1.5 2.5 3.0 1.2 0.9 1.7 1.9 1.2 1.1 1.7 1.5 0.5 1.7
0.2 0.1 0.6 0.4 0.0 0.1 0.0 0.1 0.1 0.2 0.2 0.2 0.3 1.2 0.2 0.4 0.4 0.7 0.5 0.4 0.7 1.2 1.5 1.7 1.9 1.5 1.4 1.9 2.2 2.8 3.4 3.4 4.1 2.1 3.0 2.5 2.6 2.2 1.9 2.0 2.1 nan nan nan
Water_Equivalent
0.00 0.00 0.00 0.00 0.00 0.00 0.00 0.00 0.00 0.00 0.00 0.00 0.00 0.00 0.00 0.00 0.00 0.00 0.00 0.00 0.00 0.00 0.00 0.00 0.00 0.00 0.00 0.00 0.00 0.00 0.00 0.00 0.00 0.00 0.00 0.00 0.00 0.00 0.00 0.00 0.00 0.00 0.00 0.00
0.00 0.00 0.00 0.00 0.00 0.00 0.00 0.00 0.00 0.00 0.00 0.00 0.00 0.00 0.00 0.00 0.00 0.00 0.00 0.00 0.00 0.00 0.00 0.00 0.00 0.00 0.00 0.00 0.00 0.00 0.00 0.00 0.00 0.00 0.00 0.00 0.00 0.00 0.00 0.00 0.00 0.00 0.00 0.00
0.00 0.00 0.00 0.00 0.00 0.00 0.00 0.00 0.00 0.00 0.00 0.00 0.00 0.00 0.00 0.00 0.00 0.00 0.00 0.00 0.00 0.00 0.00 0.00 0.00 0.00 0.00 0.00 0.00 0.00 0.00 0.00 0.00 0.00 0.00 0.00 0.00 0.00 0.00 0.00 0.00 0.00 0.00 0.00
0.00 0.00 0.00 0.00 0.00 0.00 0.00 0.00 0.00 0.00 0.00 0.12 0.00 0.29 0.00 0.00 0.00 0.00 0.00 0.00 0.00 0.00 0.00 0.00 0.00 0.00 0.00 0.00 0.00 0.00 0.00 0.00 0.00 0.00 0.00 0.00 0.00 0.00 0.00 0.00 0.00 0.00 0.00 0.00
0.00 0.00 0.00 0.00 0.00 0.00 0.01 0.00 0.00 0.00 0.02 0.01 0.00 0.04 0.00 0.00 0.00 0.00 0.00 0.00 0.00 0.00 0.00 0.00 0.00 0.00 0.00 0.00 0.00 0.00 0.00 0.00 0.00 0.00 0.00 0.00 0.00 0.00 0.00 0.00 0.00 0.00 0.00 0.00
0.00 0.00 0.00 0.00 0.00 0.00 0.00 0.00 0.00 0.00 0.00 1.12 0.00 0.00 0.00 0.00 0.00 0.00 0.00 0.00 0.00 0.00 0.00 0.00 0.00 0.00 0.00 0.00 0.00 0.00 0.00 0.00 0.00 0.00 0.00 0.00 0.00 0.00 0.00 0.00 0.00 0.00 0.00 0.00
0.00 0.00 0.00 0.00 0.00 0.00 0.00 0.02 2.20 3.08 4.32 1.53 0.00 0.00 0.00 0.00 0.00 0.00 0.00 0.00 0.00 0.00 0.00 0.00 0.00 0.00 0.00 0.00 0.00 0.00 0.00 0.00 0.00 0.00 0.00 0.00 0.00 0.00 0.00 0.00 0.00 0.00 0.00 0.00
0.07 0.25 0.00 0.00 0.00 0.01 0.00 0.06 0.81 1.14 0.97 0.20 0.00 0.37 0.00 0.00 0.00 0.00 0.00 0.00 0.00 0.00 0.00 0.00 0.00 0.00 0.00 0.00 0.00 0.00 0.00 0.00 0.00 0.00 0.00 0.00 0.00 0.00 0.00 0.00 0.00 0.00 0.00 0.00
0.06 0.03 0.00 0.00 0.00 0.00 0.01 0.39 0.00 0.99 0.63 0.58 0.04 0.00 0.00 0.00 0.00 0.00 0.00 0.00 0.00 0.00 0.00 0.00 0.00 0.00 0.00 0.00 0.00 0.00 0.00 0.00 0.00 0.00 0.00 0.00 0.00 0.00 0.00 0.00 0.00 0.00 0.00 0.00
0.00 0.13 0.00 0.00 0.00 0.00 0.00 0.00 0.69 0.94 1.88 0.74 0.19 0.01 0.00 0.00 0.00 0.00 0.00 0.00 0.00 0.00 0.00 0.00 0.00 0.00 0.00 0.00 0.00 0.00 0.00 0.00 0.00 0.00 0.00 0.00 0.00 0.00 0.00 0.00 0.00 0.00 0.00 0.00
0.00 0.06 0.01 0.00 0.01 0.01 0.15 0.44 0.23 0.11 0.33 0.85 0.59 0.11 0.00 0.00 0.00 0.00 0.00 0.00 0.00 0.00 0.00 0.00 0.00 0.00 0.00 0.00 0.00 0.00 0.00 0.00 0.00 0.00 0.00 0.00 0.00 0.00 0.00 0.00 0.00 0.00 0.00 0.00
0.00 0.03 0.39 0.01 0.00 0.00 0.00 0.00 0.01 0.98 0.30 0.14 0.46 0.25 0.00 0.00 0.00 0.00 0.00 0.00 0.00 0.00 0.00 0.00 0.00 0.00 0.00 0.00 0.00 0.00 0.00 0.00 0.00 0.00 0.00 0.00 0.00 0.00 0.00 0.00 0.00 0.00 0.00 0.00
0.08 0.83 1.41 0.55 0.33 0.00 0.00 0.00 0.01 0.21 0.37 0.32 1.86 0.26 0.00 0.00 0.00 0.00 0.00 0.00 0.00 0.00 0.00 0.00 0.00 0.00 0.00 0.00 0.00 0.00 0.00 0.00 0.00 0.00 0.00 0.00 0.00 0.01 0.11 0.39 0.12 0.02 0.18 0.17
nan 0.35 0.58 0.23 0.02 0.02 0.01 0.00 0.00 0.75 1.80 0.70 0.31 0.40 0.00 0.00 0.05 0.00 0.00 0.00 0.00 0.00 0.00 0.00 0.00 0.00 0.00 0.00 0.00 0.00 0.01 0.00 0.00 0.00 0.00 0.01 0.03 0.03 0.16 0.57 1.16 1.10 0.52 0.34
0.06 1.24 0.20 0.15 0.02 0.02 0.02 0.02 0.02 0.22 0.35 1.18 0.15 0.61 0.51 0.40 1.20 0.46 0.07 0.00 0.00 0.00 0.00 0.01 0.01 0.01 0.01 0.03 0.04 0.25 0.10 0.02 0.01 0.02 0.39 0.90 0.44 0.41 0.84 1.46 1.53 1.36 1.02 0.73
0.08 1.27 0.14 0.63 0.05 0.04 0.09 0.01 0.01 0.01 0.18 0.03 0.01 0.03 0.00 0.00 0.00 0.17 0.11 0.14 0.03 0.13 0.13 0.11 0.08 0.08 0.05 0.24 0.36 0.69 0.87 0.53 0.09 0.51 1.40 1.32 1.47 1.36 1.32 1.85 1.46 1.29 1.10 1.28
0.44 0.90 2.15 3.10 0.04 0.10 2.28 0.00 0.00 0.12 0.06 0.35 0.47 0.13 0.01 0.17 0.14 0.50 0.18 0.37 0.43 0.45 0.41 0.25 0.42 0.65 0.17 0.61 0.33 1.24 1.16 0.56 1.11 1.26 1.95 2.18 2.20 1.52 1.61 1.53 1.52 1.24 1.00 0.96
1.04 1.13 1.15 4.13 1.60 7.02 0.22 0.00 0.00 0.01 0.01 0.02 0.05 0.06 0.00 0.99 0.10 0.17 0.22 0.30 0.40 0.54 0.68 0.60 0.42 0.74 0.61 0.54 0.75 1.00 1.11 1.35 1.69 1.61 1.79 1.73 1.87 1.48 1.35 1.31 1.23 1.40 0.94 1.15
0.15 0.39 5.03 7.48 3.39 0.06 0.00 0.00 0.00 0.03 0.02 0.00 0.00 0.00 0.00 0.01 0.00 0.00 0.09 0.49 0.66 0.90 0.99 0.87 0.90 1.14 1.22 1.44 1.25 1.32 1.54 1.98 1.66 1.75 1.63 1.62 1.38 1.63 1.36 1.26 1.36 0.94 0.52 0.32
0.30 0.24 1.47 6.87 5.43 3.73 0.00 0.00 0.00 0.00 0.11 0.00 0.00 0.00 0.00 0.00 0.03 0.09 0.67 0.52 0.76 1.03 1.26 1.61 1.55 1.79 1.25 1.33 0.91 0.69 1.02 1.01 1.27 1.19 1.30 1.28 1.19 1.13 1.12 0.77 0.92 1.09 0.54 0.56
3.22 5.25 7.64 5.08 5.48 1.96 0.00 0.00 0.00 0.58 0.05 0.00 0.00 0.00 0.00 0.06 0.17 0.30 0.59 0.44 0.65 0.93 1.14 1.12 0.95 0.94 1.15 1.42 0.61 0.67 0.63 0.63 0.62 0.53 0.66 0.79 0.67 0.68 0.55 0.39 0.29 0.33 0.38 0.41
0.87 2.74 5.65 4.21 5.55 5.16 0.00 0.02 0.08 0.07 0.01 0.03 0.00 0.00 0.01 0.00 0.01 0.15 0.15 0.33 0.40 0.55 0.75 0.80 0.40 0.58 1.08 1.07 0.17 0.35 0.18 0.52 0.42 0.22 0.26 0.34 0.39 0.24 0.23 0.23 0.10 0.26 0.14 0.13
0.96 0.48 0.71 0.46 0.62 0.06 0.02 0.17 0.14 0.27 0.08 0.04 0.02 0.00 0.00 0.01 0.00 0.00 0.01 0.02 0.02 0.04 0.07 0.24 0.07 0.05 0.14 0.23 0.02 0.01 0.28 0.23 0.28 0.28 0.58 0.51 0.38 0.27 0.21 0.21 0.09 0.38 0.06 0.29
0.13 0.18 0.31 0.25 0.03 0.03 0.09 0.15 0.14 0.10 0.10 0.07 0.05 0.04 0.02 0.02 0.00 0.00 0.00 0.01 0.01 0.03 0.07 0.15 0.14 0.09 0.07 0.06 0.07 0.07 0.11 0.12 0.72 0.71 0.33 0.19 0.23 0.15 0.14 0.32 0.35 0.52 0.47 0.43
0.09 0.08 0.25 0.21 0.00 0.04 0.06 0.04 0.05 0.03 0.04 0.05 0.07 0.10 0.04 0.02 0.00 0.01 0.03 0.03 0.02 0.06 0.09 0.16 0.18 0.11 0.09 0.08 0.09 0.22 0.17 0.25 0.41 0.48 0.17 0.16 0.33 0.37 0.22 0.23 0.41 0.34 0.12 0.39
0.05 0.02 0.11 0.10 0.01 0.02 0.01 0.02 0.02 0.03 0.03 0.02 0.05 0.20 0.03 0.06 0.06 0.12 0.10 0.08 0.12 0.17 0.20 0.21 0.22 0.17 0.15 0.21 0.25 0.35 0.50 0.52 0.58 0.25 0.44 0.43 0.45 0.40 0.34 0.36 0.40 nan nan nan
SL_Ratio
nan nan nan nan nan nan nan nan nan nan nan nan nan nan nan nan nan nan nan nan nan nan nan nan nan nan nan nan nan nan nan nan nan nan nan nan nan nan nan nan nan nan nan nan
nan nan nan nan nan nan nan nan 2.5 nan nan nan nan nan nan nan nan nan nan nan nan nan nan nan nan nan nan nan nan nan nan nan nan nan nan nan nan nan nan nan nan nan nan nan
2.5 nan nan nan nan nan nan nan nan nan nan nan nan nan nan nan nan nan nan nan nan nan nan nan nan nan nan nan nan nan nan nan nan nan nan nan nan nan nan nan nan nan nan nan
nan nan nan nan nan nan nan nan nan nan 2.5 2.8 nan 3.5 nan nan nan nan nan nan nan nan nan nan nan nan nan nan nan nan nan nan nan nan nan nan nan nan nan nan nan nan nan nan
nan nan nan nan nan nan 2.7 nan nan nan 2.6 2.9 nan 3.0 nan nan nan nan nan nan nan nan nan nan nan nan nan nan nan nan nan nan nan nan nan nan nan nan nan nan nan nan nan nan
nan nan nan nan nan nan nan nan nan nan nan 3.9 nan nan nan nan nan nan nan nan nan nan nan nan nan nan nan nan nan nan nan nan nan nan nan nan nan nan nan nan nan nan nan nan
nan nan nan nan nan nan nan 2.6 3.7 3.8 4.5 4.3 nan nan nan nan nan nan nan nan nan nan nan nan nan nan nan nan nan nan nan nan nan nan nan nan nan nan nan nan nan nan nan nan
2.7 3.1 nan nan nan 2.8 nan 2.9 4.0 5.3 5.4 3.4 nan 4.1 nan nan nan nan nan nan nan nan nan nan nan nan nan nan nan nan nan nan nan nan nan nan nan nan nan nan nan nan nan nan
3.1 2.7 nan nan nan nan 3.1 3.1 nan 4.9 5.6 4.9 2.6 nan nan nan nan nan nan nan nan nan nan nan nan nan nan nan nan nan nan nan nan nan nan nan nan nan nan nan nan nan nan nan
nan 4.6 nan nan nan nan 5.0 nan 5.3 3.5 5.8 6.1 3.7 3.3 nan nan nan nan nan nan nan nan nan nan nan nan nan nan nan nan nan nan nan nan nan nan nan nan nan nan nan nan nan nan
nan 4.2 3.9 0.0 2.5 2.8 2.8 2.9 3.3 3.5 3.7 5.0 5.3 3.6 nan nan nan nan nan nan nan nan nan nan nan nan nan nan nan nan nan nan nan nan nan nan nan nan nan nan nan nan nan nan
nan 3.4 3.9 3.0 nan nan nan nan 3.4 4.9 5.3 3.5 4.8 7.2 nan nan nan nan nan nan nan nan nan nan nan nan nan nan nan nan nan nan nan nan nan nan nan nan nan 2.5 nan nan 2.5 nan
2.9 3.7 4.7 4.3 4.4 2.5 nan nan 4.6 5.2 4.1 6.7 6.2 5.0 nan nan nan nan nan nan 2.5 nan nan nan nan nan nan nan nan nan nan nan nan nan nan nan 2.5 2.5 2.8 2.8 2.7 2.5 2.5 2.5
nan 4.3 5.2 4.8 4.8 3.9 4.7 5.0 nan 6.1 5.6 5.1 5.1 4.9 nan 2.5 3.4 nan nan nan nan nan nan nan nan nan nan 2.5 3.0 3.3 3.8 nan nan 5.0 2.5 2.8 2.8 2.8 2.8 2.7 2.7 2.6 2.5 2.5
4.5 4.6 4.9 4.5 3.8 3.9 4.1 4.1 4.0 7.0 5.8 6.1 4.6 6.6 4.7 3.6 3.6 3.1 3.1 2.5 2.5 3.8 4.0 3.5 3.4 3.3 3.3 3.1 3.0 3.3 3.2 2.7 2.7 2.7 3.1 3.3 3.0 3.0 3.2 3.3 3.3 3.2 2.8 2.7
4.6 4.2 6.1 5.8 4.4 4.5 6.3 3.3 3.9 3.9 4.6 4.5 4.2 4.8 nan nan nan 3.3 3.1 3.3 3.3 3.7 3.7 3.6 3.4 3.3 3.4 3.7 3.6 3.7 3.5 3.5 3.5 3.3 4.1 3.6 3.4 3.3 3.7 4.1 4.7 4.5 4.5 3.7
5.5 5.2 3.9 4.2 5.2 6.2 5.7 5.0 5.0 5.1 4.1 5.8 6.5 5.7 2.7 4.3 3.7 3.4 3.7 3.8 3.9 3.7 3.8 3.6 3.7 3.5 3.5 4.1 3.8 4.4 4.2 3.6 3.9 4.1 3.7 3.7 3.9 4.6 4.7 4.6 4.6 5.0 5.1 3.9
5.3 4.0 3.8 4.2 3.9 5.9 4.7 nan nan 4.4 3.3 3.5 3.9 4.1 3.3 3.8 3.2 3.2 3.5 3.8 3.8 4.4 4.0 4.0 3.7 3.4 3.4 3.4 3.9 3.9 3.7 3.8 4.1 4.2 4.3 4.3 4.3 4.9 4.8 5.1 5.2 4.5 4.2 3.9
5.0 4.9 5.3 5.4 5.4 4.0 nan nan nan 4.6 4.5 nan nan nan nan 3.0 nan nan 3.1 3.5 3.6 3.8 3.8 3.7 3.6 3.7 3.6 4.0 4.2 4.4 4.8 4.5 4.4 4.7 4.7 4.7 4.7 5.0 5.5 6.0 5.4 4.8 5.0 4.9
6.6 5.3 4.8 5.2 5.2 6.2 nan nan nan nan 4.5 nan nan nan nan nan 4.5 2.7 4.1 4.0 4.7 4.8 4.9 4.9 4.5 4.4 4.9 4.9 5.1 5.7 5.9 5.9 5.6 5.3 5.1 4.9 5.0 4.9 6.3 6.0 6.2 4.9 4.5 4.7
5.7 5.2 5.4 5.1 5.3 4.8 5.0 5.0 nan 6.1 5.5 3.3 nan nan nan 4.3 2.9 3.5 4.1 4.1 4.1 4.9 5.4 5.1 5.9 6.2 5.8 5.6 5.7 6.2 6.2 6.5 5.6 5.6 5.5 5.5 5.5 5.4 5.3 5.3 5.1 5.8 6.0 5.7
7.1 6.0 5.4 5.5 6.1 6.6 2.5 4.7 7.4 4.5 4.3 4.4 5.0 nan 4.4 nan 3.1 4.3 4.3 4.8 4.8 5.5 5.9 5.9 6.6 7.0 7.0 6.2 6.3 6.8 6.8 6.1 6.0 6.0 6.2 6.4 6.0 5.9 5.2 4.9 5.4 5.8 6.1 6.1
7.5 6.6 6.7 7.4 6.2 5.4 4.7 4.9 4.3 5.4 4.5 4.5 4.5 nan 4.3 4.4 nan 4.0 4.4 4.0 3.9 4.4 5.0 5.9 6.0 6.4 7.5 7.6 4.2 4.7 6.9 6.5 6.3 5.6 5.2 5.5 5.7 5.2 5.3 4.3 4.7 3.7 3.8 4.0
7.5 6.5 5.5 7.6 4.4 4.9 6.3 5.1 5.1 4.9 4.9 5.0 4.3 4.6 5.4 5.7 nan 10.0 6.0 5.0 5.0 4.6 5.4 5.7 6.3 6.6 6.1 5.6 6.1 5.8 6.2 5.9 4.7 4.8 6.2 6.7 5.7 4.6 5.2 3.7 3.5 3.6 4.2 4.7
4.7 5.2 5.5 4.9 4.2 5.2 5.2 4.0 4.3 4.5 5.4 5.5 5.5 6.0 5.7 6.4 7.0 5.5 4.6 4.5 4.4 5.5 6.5 6.7 7.0 6.9 7.0 6.7 6.8 6.5 6.7 6.0 6.0 6.2 7.5 5.7 5.1 5.1 5.4 5.1 4.0 4.3 3.9 4.2
4.1 5.9 5.4 4.0 4.5 4.2 3.9 4.5 4.6 5.9 6.9 6.3 6.2 6.2 5.5 6.5 6.1 5.5 5.0 5.2 5.8 7.1 7.6 8.2 8.8 9.1 9.2 8.8 8.6 8.0 6.9 6.6 7.1 8.2 6.7 5.9 5.7 5.7 5.7 5.6 5.3 nan nan nan